Weather History for West Bend, WI

Change the Weather History Date:

Wednesday, March 6, 2013

  Actual Average Record
Temperature  
Mean Temperature 29 °F -  
Max Temperature 32 °F 37 °F 64 °F (1983)
Min Temperature 26 °F 20 °F -7 °F (1932)
Degree Days  
Heating Degree Days 36    
Moisture  
Dew Point 23 °F    
Average Humidity 77    
Maximum Humidity 86    
Minimum Humidity 69    
Precipitation  
Precipitation 0.00 in - - ()
Sea Level Pressure  
Sea Level Pressure 30.20 in    
Wind  
Wind Speed 10 mph (NW)    
Max Wind Speed 15 mph    
Max Gust Speed 20 mph    
Visibility 10 miles    
Events Snow    
Averages and records for this station are not official NWS values.
T = Trace of Precipitation, MM = Missing Value Source: NWS Daily Summary

Daily Weather History Graph

Daily Weather History Graph

Search for Another Location

Airport:

Trip Planner

Search our weather history database for the weather conditions in past years. The results will help you decide how hot, cold, wet, or windy it might be!

Date:

Astronomy

Mar. 06, 2013 Rise Set
Actual Time 6:19 AM CST 5:48 PM CST
Civil Twilight 5:51 AM CST 6:16 PM CST
Nautical Twilight 5:18 AM CST 6:49 PM CST
Astronomical Twilight 4:45 AM CST 7:23 PM CST
Moon 2:36 AM CST (3/6) 12:22 PM CST (3/6)
Length of Visible Light 12h 25m
Length of Day
11h 28m
Waning Crescent, 29% of the Moon is Illuminated
Mar 6
Waning Crescent
Mar 11
New
Mar 19
First Quarter
Mar 27
Full
Apr 2
Last Quarter

Hourly Weather History & Observations

Time (CST) Temp. Windchill Dew Point Humidity Pressure Visibility Wind Dir Wind Speed Gust Speed Precip Events Conditions
12:15 AM 28.4 °F 19.7 °F 21.2 °F 74% 30.04 in 10.0 mi NNW 9.2 mph - N/A   Overcast
12:35 AM 26.6 °F 16.2 °F 21.2 °F 80% 30.05 in 10.0 mi NNW 11.5 mph - N/A   Overcast
12:55 AM 26.6 °F 16.8 °F 21.2 °F 80% 30.05 in 10.0 mi NNW 10.4 mph - N/A   Overcast
1:15 AM 26.6 °F 16.2 °F 21.2 °F 80% 30.06 in 10.0 mi NNW 11.5 mph 16.1 mph N/A   Overcast
1:35 AM 26.6 °F 16.2 °F 21.2 °F 80% 30.07 in 10.0 mi NNW 11.5 mph 18.4 mph N/A   Overcast
1:55 AM 26.6 °F 15.2 °F 21.2 °F 80% 30.07 in 10.0 mi North 13.8 mph - N/A   Overcast
2:15 AM 26.6 °F 15.7 °F 21.2 °F 80% 30.07 in 10.0 mi NNW 12.7 mph - N/A   Overcast
2:35 AM 26.6 °F 15.7 °F 21.2 °F 80% 30.08 in 10.0 mi NNW 12.7 mph 16.1 mph N/A   Overcast
2:55 AM 26.6 °F 15.2 °F 21.2 °F 80% 30.09 in 10.0 mi NNW 13.8 mph 19.6 mph N/A   Overcast
3:15 AM 26.6 °F 15.7 °F 21.2 °F 80% 30.10 in 10.0 mi NNW 12.7 mph 18.4 mph N/A   Overcast
3:35 AM 26.6 °F 16.2 °F 21.2 °F 80% 30.10 in 10.0 mi NNW 11.5 mph - N/A   Overcast
3:55 AM 26.6 °F 15.2 °F 21.2 °F 80% 30.11 in 10.0 mi NNW 13.8 mph 18.4 mph N/A   Overcast
4:15 AM 26.6 °F 16.8 °F 21.2 °F 80% 30.12 in 10.0 mi NNW 10.4 mph 17.3 mph N/A   Overcast
4:35 AM 26.6 °F 16.8 °F 21.2 °F 80% 30.14 in 10.0 mi NNW 10.4 mph - N/A   Overcast
4:55 AM 26.6 °F 16.8 °F 23.0 °F 86% 30.14 in 10.0 mi NNW 10.4 mph 18.4 mph N/A   Overcast
5:15 AM 26.6 °F 16.2 °F 23.0 °F 86% 30.14 in 10.0 mi NNW 11.5 mph - N/A   Overcast
5:35 AM 26.6 °F 16.2 °F 21.2 °F 80% 30.14 in 10.0 mi NNW 11.5 mph - N/A   Overcast
5:55 AM 26.6 °F 18.2 °F 23.0 °F 86% 30.14 in 10.0 mi North 8.1 mph - N/A   Overcast
6:15 AM 28.4 °F 19.7 °F 23.0 °F 80% 30.15 in 10.0 mi North 9.2 mph - N/A   Overcast
6:35 AM 28.4 °F 21.2 °F 23.0 °F 80% 30.15 in 10.0 mi NNW 6.9 mph - N/A   Overcast
6:55 AM 28.4 °F 20.4 °F 23.0 °F 80% 30.16 in 10.0 mi NW 8.1 mph - N/A   Overcast
7:15 AM 28.4 °F 20.4 °F 23.0 °F 80% 30.17 in 10.0 mi NW 8.1 mph - N/A   Overcast
7:35 AM 28.4 °F 19.7 °F 23.0 °F 80% 30.19 in 10.0 mi NW 9.2 mph - N/A   Overcast
7:55 AM 28.4 °F 18.0 °F 23.0 °F 80% 30.20 in 7.0 mi NW 12.7 mph 17.3 mph N/A   Overcast
8:15 AM 28.4 °F 18.0 °F 23.0 °F 80% 30.20 in 5.0 mi NW 12.7 mph - N/A Snow Light Snow
8:35 AM 28.4 °F 17.5 °F 23.0 °F 80% 30.21 in 7.0 mi NW 13.8 mph 17.3 mph N/A   Overcast
8:55 AM 28.4 °F 19.1 °F 23.0 °F 80% 30.21 in 10.0 mi NW 10.4 mph - N/A   Overcast
9:15 AM 28.4 °F 19.7 °F 23.0 °F 80% 30.21 in 10.0 mi NW 9.2 mph - N/A   Overcast
9:35 AM 28.4 °F 19.7 °F 23.0 °F 80% 30.22 in 10.0 mi NW 9.2 mph - N/A   Overcast
10:15 AM 30.2 °F 21.3 °F 23.0 °F 75% 30.22 in 10.0 mi NW 10.4 mph - N/A   Overcast
10:35 AM 30.2 °F 21.9 °F 23.0 °F 75% 30.23 in 10.0 mi NW 9.2 mph - N/A   Overcast
10:55 AM 32.0 °F 23.6 °F 24.8 °F 75% 30.22 in 10.0 mi NW 10.4 mph - N/A   Overcast
11:15 AM 32.0 °F 23.6 °F 24.8 °F 75% 30.22 in 10.0 mi NW 10.4 mph - N/A   Overcast
11:35 AM 32.0 °F 23.6 °F 24.8 °F 75% 30.22 in 10.0 mi NNW 10.4 mph - N/A   Overcast
11:55 AM 32.0 °F 23.0 °F 24.8 °F 75% 30.23 in 10.0 mi NW 11.5 mph - N/A   Overcast
12:15 PM 32.0 °F 24.2 °F 24.8 °F 75% 30.22 in 10.0 mi NW 9.2 mph - N/A   Overcast
12:55 PM 32.0 °F 23.6 °F 24.8 °F 75% 30.22 in 10.0 mi NW 10.4 mph - N/A   Overcast
1:15 PM 32.0 °F 23.6 °F 24.8 °F 75% 30.22 in 10.0 mi NW 10.4 mph - N/A   Overcast
1:35 PM 32.0 °F 21.6 °F 24.8 °F 75% 30.22 in 10.0 mi NW 15.0 mph - N/A   Overcast
1:55 PM 32.0 °F 24.2 °F 24.8 °F 75% 30.22 in 10.0 mi NW 9.2 mph - N/A   Overcast
2:15 PM 32.0 °F 22.5 °F 24.8 °F 75% 30.22 in 10.0 mi NW 12.7 mph - N/A   Overcast
2:35 PM 32.0 °F 24.8 °F 24.8 °F 75% 30.22 in 10.0 mi NW 8.1 mph - N/A   Overcast
2:55 PM 32.0 °F 24.8 °F 24.8 °F 75% 30.22 in 10.0 mi NW 8.1 mph - N/A   Overcast
3:35 PM 32.0 °F 23.6 °F 24.8 °F 75% 30.23 in 10.0 mi NW 10.4 mph - N/A   Overcast
4:15 PM 32.0 °F 24.8 °F 24.8 °F 75% 30.23 in 10.0 mi NW 8.1 mph - N/A   Overcast
4:35 PM 32.0 °F 26.4 °F 24.8 °F 75% 30.24 in 10.0 mi NW 5.8 mph - N/A   Overcast
4:55 PM 32.0 °F 24.8 °F 24.8 °F 75% 30.24 in 10.0 mi NW 8.1 mph - N/A   Overcast
5:15 PM 32.0 °F 24.8 °F 24.8 °F 75% 30.25 in 10.0 mi NW 8.1 mph - N/A   Overcast
5:35 PM 32.0 °F 27.5 °F 24.8 °F 75% 30.25 in 10.0 mi NW 4.6 mph - N/A   Overcast
5:55 PM 32.0 °F 25.6 °F 24.8 °F 75% 30.25 in 10.0 mi WNW 6.9 mph - N/A   Overcast
6:15 PM 32.0 °F 27.5 °F 24.8 °F 75% 30.25 in 10.0 mi WNW 4.6 mph - N/A   Overcast
6:35 PM 32.0 °F 28.7 °F 24.8 °F 75% 30.25 in 10.0 mi WNW 3.5 mph - N/A   Overcast
6:55 PM 32.0 °F 26.4 °F 24.8 °F 75% 30.26 in 10.0 mi WNW 5.8 mph - N/A   Overcast
7:15 PM 30.2 °F 26.7 °F 24.8 °F 80% 30.26 in 4.0 mi WNW 3.5 mph - N/A   Haze
7:35 PM 32.0 °F 27.5 °F 23.0 °F 69% 30.26 in 10.0 mi WNW 4.6 mph - N/A   Overcast
7:55 PM 32.0 °F 27.5 °F 23.0 °F 69% 30.27 in 10.0 mi West 4.6 mph - N/A   Overcast
8:35 PM 32.0 °F 26.4 °F 23.0 °F 69% 30.27 in 10.0 mi WNW 5.8 mph - N/A   Overcast
8:55 PM 30.2 °F 24.3 °F 23.0 °F 75% 30.27 in 10.0 mi WNW 5.8 mph - N/A   Overcast
9:15 PM 30.2 °F 24.3 °F 23.0 °F 75% 30.27 in 10.0 mi WNW 5.8 mph - N/A   Overcast
9:35 PM 30.2 °F 25.4 °F 23.0 °F 75% 30.27 in 10.0 mi NW 4.6 mph - N/A   Overcast
9:55 PM 30.2 °F 25.4 °F 21.2 °F 69% 30.27 in 10.0 mi NW 4.6 mph - N/A   Overcast
10:15 PM 30.2 °F 25.4 °F 21.2 °F 69% 30.27 in 10.0 mi NW 4.6 mph - N/A   Overcast
10:35 PM 30.2 °F 21.9 °F 21.2 °F 69% 30.27 in 10.0 mi WNW 9.2 mph - N/A   Overcast
10:55 PM 30.2 °F 23.4 °F 21.2 °F 69% 30.27 in 10.0 mi NW 6.9 mph - N/A   Overcast
11:15 PM 30.2 °F 23.4 °F 21.2 °F 69% 30.27 in 10.0 mi NW 6.9 mph - N/A   Overcast
11:35 PM 30.2 °F 23.4 °F 21.2 °F 69% 30.27 in 10.0 mi WNW 6.9 mph - N/A   Overcast
11:55 PM 30.2 °F 23.4 °F 21.2 °F 69% 30.27 in 10.0 mi WNW 6.9 mph - N/A   Overcast